This is the latest recevied weather packets stored in our database for station/object KV9E. If no packets are shown the sender has not sent any weather packets the latest 1 day(s).
| Time | Temp. | Humidity | Pressure | Rain* | Wind** | Luminosity | Snow |
|---|---|---|---|---|---|---|---|
| 1778037482 | 17.78° C | 68% | 1009.1 hPa | 0 mm | - | 0 W/m² | - |
| 1778037179 | 17.78° C | 68% | 1009.3 hPa | 0 mm | - | 0 W/m² | - |
| 1778036877 | 17.78° C | 67% | 1009.4 hPa | 0 mm | - | 0 W/m² | - |
| 1778036575 | 17.78° C | 67% | 1009.5 hPa | 0 mm | - | 0 W/m² | - |
| 1778036271 | 17.78° C | 67% | 1009.4 hPa | 0 mm | - | 0 W/m² | - |
| 1778035967 | 17.78° C | 66% | 1009.3 hPa | 0 mm | - | 0 W/m² | - |
| 1778035664 | 17.78° C | 66% | 1009.3 hPa | 0 mm | - | 0 W/m² | - |
| 1778035361 | 17.78° C | 66% | 1009.3 hPa | 0 mm | - | 0 W/m² | - |
| 1778035057 | 17.78° C | 66% | 1009.8 hPa | 0 mm | - | 0 W/m² | - |
| 1778034754 | 17.78° C | 66% | 1009.7 hPa | 0 mm | - | 0 W/m² | - |
| 1778034451 | 17.78° C | 65% | 1009.7 hPa | 0 mm | - | 0 W/m² | - |
| 1778033847 | 17.78° C | 65% | 1009.5 hPa | 0 mm | - | 0 W/m² | - |
| 1778033543 | 17.78° C | 65% | 1009.6 hPa | 0 mm | - | 0 W/m² | - |
| 1778033240 | 17.78° C | 64% | 1009.7 hPa | 0 mm | - | 0 W/m² | - |
| 1778032938 | 17.78° C | 64% | 1009.7 hPa | 0 mm | - | 0 W/m² | - |
| 1778032630 | 17.78° C | 64% | 1009.4 hPa | 0 mm | - | 0 W/m² | - |
| 1778031720 | 17.22° C | 66% | 1009.7 hPa | 0 mm | - | 0 W/m² | - |
| 1778031418 | 17.22° C | 66% | 1009.6 hPa | 0 mm | - | 0 W/m² | - |
| 1778031115 | 17.22° C | 65% | 1009.6 hPa | 0 mm | - | 0 W/m² | - |
| 1778030811 | 17.22° C | 66% | 1009.5 hPa | 0 mm | - | 0 W/m² | - |
| 1778030508 | 17.78° C | 63% | 1009.1 hPa | 0 mm | - | 0 W/m² | - |
| 1778030206 | 17.78° C | 59% | 1009.3 hPa | 0 mm | - | 0 W/m² | - |
| 1778028994 | 17.78° C | 57% | 1009.3 hPa | 0 mm | - | 0 W/m² | - |
| 1778028691 | 17.78° C | 57% | 1008.9 hPa | 0 mm | - | 0 W/m² | - |
| 1778028387 | 17.78° C | 56% | 1008.7 hPa | 0 mm | - | 0 W/m² | - |
* Rain latest hour (hover to see other rain measurements)
** Current wind speed in m/s (hover to see current wind gust speed)